Change the Weather History Date:

Monday, December 2, 2013

  Actual Average Record
Temperature  
Mean Temperature 32 °F -  
Max Temperature 45 °F 30 °F 59 °F (2012)
Min Temperature 19 °F 16 °F -14 °F (2006)
Degree Days  
Heating Degree Days 33    
Moisture  
Dew Point 28 °F    
Average Humidity 86    
Maximum Humidity 96    
Minimum Humidity 68    
Precipitation  
Precipitation 0.00 in - - ()
Sea Level Pressure  
Sea Level Pressure 29.60 in    
Wind  
Wind Speed 12 mph (ENE)    
Max Wind Speed 21 mph    
Max Gust Speed 25 mph    
Visibility 7 miles    
Events Snow    
Averages and records for this station are not official NWS values.
T = Trace of Precipitation, MM = Missing Value Source: NWS Daily Summary

Daily Weather History Graph

Daily Weather History Graph

Search for Another Location

Airport or City:

Trip Planner

Search our weather history database for the weather conditions in past years. The results will help you decide how hot, cold, wet, or windy it might be!

Date:

Astronomy

Dec. 02, 2013 Rise Set
Actual Time 7:21 AM MST 4:11 PM MST
Civil Twilight 6:47 AM MST 4:45 PM MST
Nautical Twilight 6:09 AM MST 5:23 PM MST
Astronomical Twilight 5:33 AM MST 5:59 PM MST
Moon 6:46 AM MST (12/2) 4:18 PM MST (12/2)
Length of Visible Light 9h 58m
Length of Day
8h 50m
Waning Crescent, 0% of the Moon is Illuminated
Dec 2
Waning Crescent
Dec 2
New
Dec 9
First Quarter
Dec 17
Full
Dec 25
Last Quarter

Hourly Weather History & Observations

Time (MST) Temp. Windchill Dew Point Humidity Pressure Visibility Wind Dir Wind Speed Gust Speed Precip Events Conditions
12:51 AM 37.0 °F 28.9 °F 34.0 °F 89% 29.58 in 10.0 mi WSW 12.7 mph - N/A   Mostly Cloudy
1:51 AM 37.0 °F 31.0 °F 34.0 °F 89% 29.57 in 10.0 mi WSW 8.1 mph - N/A   Mostly Cloudy
2:51 AM 37.0 °F 31.0 °F 33.1 °F 86% 29.56 in 10.0 mi West 8.1 mph - N/A   Overcast
3:51 AM 36.0 °F 29.0 °F 32.0 °F 86% 29.55 in 10.0 mi West 9.2 mph - N/A   Partly Cloudy
4:51 AM 35.1 °F 27.9 °F 30.9 °F 85% 29.55 in 10.0 mi West 9.2 mph - N/A   Clear
5:51 AM 37.0 °F 29.8 °F 32.0 °F 82% 29.56 in 10.0 mi SW 10.4 mph - N/A   Clear
6:51 AM 35.1 °F 26.9 °F 30.9 °F 85% 29.56 in 10.0 mi West 11.5 mph - N/A   Clear
7:51 AM 35.1 °F 27.9 °F 30.9 °F 85% 29.56 in 10.0 mi West 9.2 mph - N/A   Clear
8:51 AM 35.1 °F 28.6 °F 30.9 °F 85% 29.55 in 10.0 mi West 8.1 mph - N/A   Clear
9:51 AM 39.0 °F 32.8 °F 34.0 °F 82% 29.57 in 10.0 mi West 9.2 mph - N/A   Clear
10:51 AM 43.0 °F 35.4 °F 35.1 °F 74% 29.57 in 10.0 mi West 16.1 mph - N/A   Partly Cloudy
11:51 AM 45.0 °F 39.7 °F 35.1 °F 68% 29.53 in 10.0 mi WNW 10.4 mph - N/A   Clear
12:51 PM 43.0 °F 37.2 °F 34.0 °F 71% 29.55 in 10.0 mi WNW 10.4 mph - N/A   Mostly Cloudy
1:31 PM 43.0 °F 37.7 °F 34.0 °F 71% 29.52 in 10.0 mi NW 9.2 mph - N/A   Mostly Cloudy
1:51 PM 42.1 °F 35.7 °F 34.0 °F 73% 29.54 in 10.0 mi North 11.5 mph - N/A   Overcast
2:51 PM 42.1 °F 37.7 °F 34.0 °F 73% 29.55 in 10.0 mi North 6.9 mph - N/A   Mostly Cloudy
3:51 PM 37.9 °F 31.5 °F 32.0 °F 79% 29.56 in 10.0 mi NE 9.2 mph - N/A   Overcast
4:51 PM 36.0 °F 31.1 °F 32.0 °F 86% 29.60 in 10.0 mi ENE 5.8 mph - N/A   Overcast
5:14 PM 36.0 °F 28.0 °F 32.0 °F 86% 29.55 in 10.0 mi ENE 11.5 mph - N/A   Overcast
5:35 PM 33.1 °F 23.0 °F 30.9 °F 92% 29.56 in 8.0 mi East 15.0 mph - N/A   Overcast
5:48 PM 32.0 °F 21.6 °F 28.4 °F 87% 29.57 in 6.0 mi East 15.0 mph - N/A   Overcast
5:51 PM 30.9 °F 19.8 °F 28.9 °F 92% 29.62 in 5.0 mi East 16.1 mph - N/A   Overcast
6:02 PM 30.0 °F 18.7 °F 28.0 °F 92% 29.57 in 2.0 mi East 16.1 mph - N/A   Overcast
6:08 PM 28.9 °F 16.5 °F 28.0 °F 96% 29.57 in 1.8 mi East 18.4 mph - N/A   Overcast
6:42 PM 27.0 °F 15.6 °F 25.0 °F 92% 29.59 in 2.0 mi East 13.8 mph - N/A   Overcast
6:51 PM 27.0 °F 15.2 °F 25.0 °F 92% 29.66 in 2.5 mi East 15.0 mph - N/A   Overcast
6:59 PM 26.1 °F 12.7 °F 24.1 °F 92% 29.60 in 3.0 mi East 18.4 mph 24.2 mph N/A   Overcast
7:06 PM 25.0 °F 11.3 °F 24.1 °F 96% 29.60 in 2.5 mi East 18.4 mph - N/A   Overcast
7:21 PM 25.0 °F 11.7 °F 23.0 °F 92% 29.61 in 1.8 mi ENE 17.3 mph - N/A   Overcast
7:51 PM 24.1 °F 10.6 °F 21.9 °F 91% 29.68 in 2.0 mi East 17.3 mph - N/A   Overcast
8:01 PM 24.1 °F 10.6 °F 21.9 °F 91% 29.61 in 3.0 mi East 17.3 mph - N/A   Overcast
8:38 PM 23.0 °F 10.1 °F 21.0 °F 92% 29.62 in 3.0 mi East 15.0 mph - 0.00 in Snow Light Snow
8:51 PM 23.0 °F 10.1 °F 19.9 °F 88% 29.69 in 2.5 mi East 15.0 mph - 0.00 in Snow Light Snow
9:05 PM 23.0 °F 8.7 °F 19.9 °F 88% 29.62 in 3.0 mi East 18.4 mph 25.3 mph 0.00 in Snow Light Snow
9:51 PM 21.0 °F 6.6 °F 18.0 °F 88% 29.72 in 7.0 mi ENE 17.3 mph - 0.00 in   Overcast
10:16 PM 19.9 °F 4.8 °F 16.0 °F 85% 29.66 in 10.0 mi East 18.4 mph - N/A   Overcast
10:51 PM 19.9 °F 6.2 °F 16.0 °F 85% 29.75 in 10.0 mi East 15.0 mph - N/A   Overcast
11:21 PM 19.0 °F 4.0 °F 16.0 °F 88% 29.68 in 7.0 mi East 17.3 mph - N/A   Overcast
11:51 PM 19.0 °F 2.7 °F 16.0 °F 88% 29.74 in 6.0 mi East 20.7 mph 25.3 mph N/A   Overcast